Regional Weather Roundup
Issued by NWS

Home | Current Version | Previous Version | Graphics & Text | Print | Product List | Glossary On
Versions: 1 2 3 4 5 6 7 8 9 10 11 12 13 14 15 16 17 18 19 20 21 22 23 24 25 26 27 28 29 30 31 32 33 34 35 36 37 38 39 40 41 42 43 44 45 46 47 48 49 50
000
ASUS43 KBIS 031002
RWRND

NORTH DAKOTA REGIONAL WEATHER ROUNDUP
NATIONAL WEATHER SERVICE BISMARCK ND
500 AM CDT TUE MAY 03 2016

NOTE: "FAIR" INDICATES FEW OR NO CLOUDS BELOW 12,000 FEET WITH NO
SIGNIFICANT WEATHER AND/OR OBSTRUCTIONS TO VISIBILITY.


NDZ001>003-009>011-017-031100-
NORTHWEST NORTH DAKOTA

CITY           SKY/WX    TMP DP  RH WIND       PRES   REMARKS
WILLISTON      CLEAR     44  32  62 CALM      30.02R
MINOT          CLEAR     54  34  46 SW12      29.95S
MINOT AFB      CLEAR     47  36  65 W9        29.94F
$$

NDZ018>021-031>035-040>046-031100-
SOUTHWEST NORTH DAKOTA

CITY           SKY/WX    TMP DP  RH WIND       PRES   REMARKS
BISMARCK       PTCLDY    41  39  93 W3        30.00F
DICKINSON      CLOUDY    39  31  72 SW8       30.02S
GARRISON         N/A     39  34  82 W5        29.99S
HETTINGER ARPT CLEAR     33  29  85 CALM      30.06R
$$

NDZ004>008-012>016-024-026-027-054-031100-
NORTHEAST NORTH DAKOTA

CITY           SKY/WX    TMP DP  RH WIND       PRES   REMARKS
GRAND FORKS    CLOUDY    49  37  63 W10       29.88F
GRND FRKS AFB  CLOUDY    50  37  61 W12       29.89F
DEVILS LAKE    CLOUDY    47  41  80 W10       29.93F
$$

NDZ022-023-025-028>030-036>039-047>053-031100-
SOUTHEAST NORTH DAKOTA

CITY           SKY/WX    TMP DP  RH WIND       PRES   REMARKS
FARGO          CLOUDY    47  36  65 W9        29.94S
JAMESTOWN      CLOUDY    42  38  85 W6        29.95F
$$





USA.gov is the U.S. government's official web portal to all federal, state and local government web resources and services.